• In Belarus
  • List of Countries
  • For 7 days
  • Water Temperature
  • Satellite Maps
  • Weather Map
  • Weather Widgets
  • user-avatar
    Login

    Hourly Weather Lankaran

    Today, 15 December, Friday

    Time Temperature Precipitation Wind Pressure Humidity
    00:00 +1°C° 0 mm 1 mps 633 mmHg 87%
    01:00 +1°C° 0 mm 1 mps 633 mmHg 85%
    02:00 0°C° 0 mm 1 mps 632 mmHg 82%
    03:00 0°C° 0 mm 1 mps 632 mmHg 71%
    04:00 0°C° 0 mm 1 mps 632 mmHg 68%
    05:00 0°C° 0 mm 1 mps 632 mmHg 66%
    06:00 -1°C° 0 mm 1 mps 633 mmHg 64%
    07:00 +1°C° 0 mm 1 mps 633 mmHg 61%
    08:00 +2°C° 0 mm 1 mps 633 mmHg 58%
    09:00 +3°C° 0 mm 1 mps 634 mmHg 53%
    10:00 +4°C° 0 mm 1 mps 634 mmHg 52%
    11:00 +5°C° 0 mm 1 mps 634 mmHg 51%
    12:00 +5°C° 0 mm 2 mps 634 mmHg 51%
    13:00 +5°C° 0 mm 2 mps 634 mmHg 55%
    14:00 +5°C° 0 mm 2 mps 634 mmHg 59%
    15:00 +3°C° 0 mm 2 mps 633 mmHg 65%
    16:00 +2°C° 0 mm 2 mps 633 mmHg 63%
    17:00 +1°C° 0 mm 2 mps 633 mmHg 62%
    18:00 -1°C° 0 mm 2 mps 633 mmHg 61%
    19:00 -1°C° 0 mm 2 mps 634 mmHg 56%
    20:00 -1°C° 0 mm 2 mps 634 mmHg 51%
    21:00 -1°C° 0 mm 2 mps 634 mmHg 46%
    22:00 -1°C° 0 mm 2 mps 634 mmHg 44%
    23:00 -1°C° 0 mm 2 mps 634 mmHg 41%

    Tomorrow, 16 December, Saturday

    Time Temperature Precipitation Wind Pressure Humidity
    00:00 -1°C° 0 mm 2 mps 634 mmHg 38%
    01:00 -1°C° 0 mm 2 mps 634 mmHg 38%
    02:00 -1°C° 0 mm 2 mps 634 mmHg 37%
    03:00 -1°C° 0 mm 2 mps 634 mmHg 37%
    04:00 +1°C° 0 mm 1 mps 635 mmHg 38%
    05:00 +1°C° 0 mm 1 mps 635 mmHg 40%
    06:00 +1°C° 0 mm 1 mps 635 mmHg 42%
    07:00 +2°C° 0 mm 1 mps 636 mmHg 42%
    08:00 +3°C° 0 mm 1 mps 636 mmHg 42%
    09:00 +5°C° 0 mm 1 mps 637 mmHg 42%
    10:00 +5°C° 0 mm 1 mps 637 mmHg 44%
    11:00 +6°C° 0 mm 1 mps 637 mmHg 46%
    12:00 +7°C° 0 mm 1 mps 637 mmHg 48%
    13:00 +7°C° 0 mm 1 mps 637 mmHg 53%
    14:00 +6°C° 0 mm 2 mps 637 mmHg 58%
    15:00 +5°C° 0 mm 2 mps 636 mmHg 63%
    16:00 +4°C° 0 mm 2 mps 636 mmHg 67%
    17:00 +3°C° 0 mm 1 mps 636 mmHg 72%
    18:00 +2°C° 0 mm 1 mps 636 mmHg 77%
    19:00 +2°C° 0 mm 1 mps 636 mmHg 73%
    20:00 -1°C° 0 mm 2 mps 636 mmHg 69%
    21:00 -1°C° 0 mm 2 mps 636 mmHg 65%
    22:00 -1°C° 0 mm 2 mps 636 mmHg 61%
    23:00 -1°C° 0 mm 2 mps 636 mmHg 57%

    Day after tomorrow, 17 December, Sunday

    Time Temperature Precipitation Wind Pressure Humidity
    00:00 -1°C° 0 mm 2 mps 636 mmHg 53%
    01:00 -1°C° 0 mm 2 mps 636 mmHg 51%
    02:00 -1°C° 0 mm 2 mps 636 mmHg 48%
    03:00 -1°C° 0 mm 2 mps 635 mmHg 46%
    04:00 -1°C° 0 mm 2 mps 635 mmHg 46%
    05:00 -1°C° 0 mm 2 mps 635 mmHg 46%
    06:00 +1°C° 0 mm 1 mps 635 mmHg 46%
    07:00 +1°C° 0 mm 2 mps 636 mmHg 45%
    08:00 +2°C° 0 mm 2 mps 636 mmHg 44%
    09:00 +4°C° 0 mm 2 mps 637 mmHg 43%
    10:00 +5°C° 0 mm 2 mps 637 mmHg 45%
    11:00 +6°C° 0 mm 2 mps 637 mmHg 46%
    12:00 +7°C° 0 mm 2 mps 636 mmHg 47%
    13:00 +6°C° 0 mm 2 mps 636 mmHg 51%
    14:00 +6°C° 0 mm 2 mps 636 mmHg 56%
    15:00 +6°C° 0 mm 2 mps 636 mmHg 60%
    16:00 +4°C° 0 mm 2 mps 635 mmHg 63%
    17:00 +3°C° 0 mm 2 mps 635 mmHg 67%
    18:00 +1°C° 0 mm 2 mps 635 mmHg 71%
    19:00 +1°C° 0 mm 2 mps 635 mmHg 66%
    20:00 +1°C° 0 mm 2 mps 635 mmHg 62%
    21:00 0°C° 0 mm 3 mps 635 mmHg 57%
    22:00 0°C° 0 mm 3 mps 635 mmHg 54%
    23:00 0°C° 0 mm 3 mps 635 mmHg 52%

    18 December, Monday

    Time Temperature Precipitation Wind Pressure Humidity
    00:00 0°C° 0 mm 3 mps 635 mmHg 49%
    01:00 0°C° 0 mm 3 mps 634 mmHg 48%
    02:00 +1°C° 0 mm 2 mps 634 mmHg 46%
    03:00 +1°C° 0 mm 2 mps 634 mmHg 45%
    04:00 +1°C° 0 mm 2 mps 634 mmHg 44%
    05:00 +1°C° 0 mm 2 mps 634 mmHg 44%
    06:00 +1°C° 0 mm 2 mps 634 mmHg 43%
    07:00 +2°C° 0 mm 2 mps 635 mmHg 42%
    08:00 +3°C° 0 mm 2 mps 635 mmHg 41%
    09:00 +4°C° 0 mm 2 mps 636 mmHg 40%
    10:00 +5°C° 0 mm 3 mps 635 mmHg 40%
    11:00 +7°C° 0 mm 3 mps 635 mmHg 41%
    12:00 +8°C° 0 mm 3 mps 635 mmHg 41%
    13:00 +8°C° 0 mm 3 mps 635 mmHg 43%
    14:00 +8°C° 0 mm 3 mps 635 mmHg 45%
    15:00 +7°C° 0 mm 3 mps 634 mmHg 47%
    16:00 +5°C° 0 mm 3 mps 634 mmHg 49%
    17:00 +4°C° 0 mm 3 mps 634 mmHg 51%
    18:00 +2°C° 0 mm 3 mps 634 mmHg 53%
    19:00 +2°C° 0 mm 3 mps 634 mmHg 52%
    20:00 +2°C° 0 mm 3 mps 634 mmHg 51%
    21:00 +2°C° 0 mm 3 mps 634 mmHg 49%
    22:00 +2°C° 0 mm 3 mps 634 mmHg 49%
    23:00 +2°C° 0 mm 3 mps 634 mmHg 49%

    19 December, Tuesday

    Time Temperature Precipitation Wind Pressure Humidity
    00:00 +1°C° 0 mm 3 mps 634 mmHg 49%
    01:00 +1°C° 0 mm 3 mps 634 mmHg 49%
    02:00 +1°C° 0 mm 3 mps 634 mmHg 50%
    03:00 +1°C° 0 mm 3 mps 634 mmHg 51%
    04:00 +1°C° 0 mm 3 mps 634 mmHg 52%
    05:00 +1°C° 0 mm 3 mps 634 mmHg 53%
    06:00 +1°C° 0 mm 3 mps 634 mmHg 54%
    07:00 +3°C° 0 mm 3 mps 634 mmHg 52%
    08:00 +4°C° 0 mm 3 mps 635 mmHg 50%
    09:00 +5°C° 0 mm 3 mps 635 mmHg 47%
    10:00 +6°C° 0 mm 4 mps 635 mmHg 45%
    11:00 +8°C° 0 mm 4 mps 635 mmHg 42%
    12:00 +9°C° 0 mm 5 mps 635 mmHg 39%
    13:00 +10°C° 0 mm 4 mps 635 mmHg 40%
    14:00 +10°C° 0 mm 4 mps 634 mmHg 41%
    15:00 +10°C° 0 mm 4 mps 634 mmHg 42%
    16:00 +7°C° 0 mm 4 mps 634 mmHg 46%
    17:00 +6°C° 0 mm 4 mps 634 mmHg 49%
    18:00 +5°C° 0 mm 3 mps 633 mmHg 53%
    19:00 +4°C° 0 mm 3 mps 634 mmHg 53%
    20:00 +4°C° 0 mm 3 mps 634 mmHg 53%
    21:00 +4°C° 0 mm 3 mps 634 mmHg 54%
    22:00 +4°C° 0 mm 3 mps 634 mmHg 55%
    23:00 +4°C° 0 mm 3 mps 634 mmHg 55%

    20 December, Wednesday

    Time Temperature Precipitation Wind Pressure Humidity
    00:00 +4°C° 0 mm 3 mps 635 mmHg 56%
    01:00 +4°C° 0 mm 3 mps 635 mmHg 58%
    02:00 +3°C° 0 mm 3 mps 635 mmHg 59%
    03:00 +3°C° 0 mm 3 mps 635 mmHg 60%
    04:00 +3°C° 0 mm 3 mps 635 mmHg 62%
    05:00 +3°C° 0 mm 3 mps 636 mmHg 65%
    06:00 +3°C° 0 mm 3 mps 636 mmHg 67%
    07:00 +3°C° 0.1 mm 3 mps 637 mmHg 68%
    08:00 +3°C° 0.1 mm 3 mps 637 mmHg 70%
    09:00 +4°C° 0.1 mm 3 mps 638 mmHg 71%
    10:00 +4°C° 0.1 mm 3 mps 638 mmHg 72%
    11:00 +5°C° 0.1 mm 3 mps 638 mmHg 73%
    12:00 +5°C° 0.1 mm 3 mps 637 mmHg 74%
    13:00 +5°C° 0.1 mm 3 mps 637 mmHg 76%
    14:00 +4°C° 0.1 mm 3 mps 637 mmHg 78%
    15:00 +4°C° 0.1 mm 3 mps 637 mmHg 80%
    16:00 +4°C° 0.3 mm 3 mps 637 mmHg 83%
    17:00 +3°C° 0.3 mm 3 mps 637 mmHg 85%
    18:00 +3°C° 0.3 mm 3 mps 638 mmHg 88%
    19:00 +4°C° 0.6 mm 2 mps 637 mmHg 89%
    20:00 +3°C° 0.6 mm 2 mps 637 mmHg 89%
    21:00 +3°C° 0.6 mm 2 mps 637 mmHg 90%
    22:00 +3°C° 0.9 mm 2 mps 637 mmHg 90%
    23:00 +3°C° 0.9 mm 2 mps 637 mmHg 90%
    Show more

    XHprof extension not loaded